Simultaneous Nadir Overpasses (SNOs) Predictions

Prediction of SNOs between NPP and TERRA Satellite Orbit:

Table of predicted SNOs for the next 14.0 days since TLE Epoch: 7/6/2019
Index Date (NPP) Time (NPP) Lat,Lon (NPP) SZA (NPP ) Date (TERRA) Time (TERRA) Lat,Lon (TERRA) SZA (TERRA ) Distance(km) Time Diff (sec)
1 07/06/2019 10:39:29 -68.38,-161.30 134.39 07/06/2019 10:40:21 -68.41,-161.26 134.38 2.98 52
2 07/06/2019 11:30:13 68.25, 6.19 45.47 07/06/2019 11:29:49 68.24, 6.18 45.46 1.04 24
3 07/06/2019 12:20:40 -67.37, 174.59 135.43 07/06/2019 12:19:31 -67.46, 172.92 135.29 71.93 69
4 07/09/2019 02:05:59 69.32, 145.89 46.86 07/09/2019 02:07:06 69.25, 148.05 46.74 85.41 67
5 07/09/2019 02:56:24 -68.33, -45.46 134.16 07/09/2019 02:56:51 -68.31, -45.49 134.18 2.53 27
6 07/09/2019 03:47:08 68.19, 122.02 45.71 07/09/2019 03:46:18 68.19, 122.01 45.71 0.35 50
7 07/11/2019 18:22:38 68.41, -97.11 46.26 07/11/2019 18:23:49 68.42, -97.11 46.27 1.12 71
8 07/11/2019 19:13:19 -68.28, 70.38 133.87 07/11/2019 19:13:20 -68.27, 70.34 133.88 2.30 1
9 07/11/2019 20:04:01 68.04,-122.01 45.89 07/11/2019 20:02:48 68.09,-122.23 45.95 10.69 73
10 07/14/2019 10:39:33 68.36, 18.72 46.60 07/14/2019 10:40:18 68.36, 18.70 46.60 0.66 45
11 07/14/2019 11:30:14 -68.23,-173.79 133.54 07/14/2019 11:29:49 -68.21,-173.85 133.55 2.96 25
12 07/17/2019 02:05:58 -69.24, -34.01 132.07 07/17/2019 02:07:06 -69.15, -32.08 132.22 76.93 68
13 07/17/2019 02:56:27 68.32, 134.55 46.98 07/17/2019 02:56:46 68.30, 134.51 46.96 2.18 19
14 07/17/2019 03:47:08 -68.18, -57.96 133.16 07/17/2019 03:46:16 -68.21, -57.97 133.13 3.16 52
15 07/19/2019 18:22:38 -68.40, 82.91 132.48 07/19/2019 18:23:47 -68.42, 82.89 132.46 2.45 69
16 07/19/2019 19:13:22 68.27,-109.62 47.41 07/19/2019 19:13:14 68.29,-109.62 47.42 1.89 8
17 07/19/2019 20:04:00 -67.97, 58.08 132.90 07/19/2019 20:02:47 -68.03, 57.71 132.83 16.69 73




NCC Satellite Simultaneous Nadir Overpasses (SNOs) Prediction Service
